Language: 


Des rapports , des résumés tant et plus, au choix de chacun....


Données statistiques de la station
Quotidien Rapport Janvier 25, 2018 Unités:  Anglais    Métrique   les deux
« Précédent Jour
Suivant Jour »
Quotidien Hebdomadaire Mensuel Annuel Actuel
  Haut: Bas: Moyen:
Température: TemperatureC °F 5.8 °F 8.1 °F
Pt de rosée: DewpointC °F 6.0 °F 7.7 °F
Humidité: Humidity % 85 % 95 %
Vitesse du vent: WindSpeedKMH mph 0.0 mph 6.9 mph
Rafales: WindSpeedGustKMH mph - -
Vent:- - SSW
Pression: PressurehPa in 1009.0 in -
Précipitation: 0.3 in    
Historical Graphs
 
 
Données statistiques pour Janvier 25, 2018
Heure Température Point de rosée Pression Vent Vitesse du vent Refales Humidité Pluie (taux horaire)
TemperatureC °F DewpointC °F PressurehPa in Calm     Humidity % HourlyPrecipMM in
00:01 7.9 °F 8.0 °F 1011.1 in SW 13.7 mph 19.5 mph 98 % 0.0 in
00:06 7.9 °F 8.0 °F 1011.1 in SW 16.3 mph 19.5 mph 98 % 0.0 in
00:11 7.9 °F 8.0 °F 1011.1 in SW 13.0 mph 17.2 mph 98 % 0.0 in
00:16 7.9 °F 8.0 °F 1010.0 in SSW 14.0 mph 17.2 mph 98 % 0.0 in
00:21 7.9 °F 8.0 °F 1010.0 in SW 7.9 mph 16.6 mph 98 % 0.0 in
00:26 7.9 °F 8.0 °F 1010.0 in SSW 8.7 mph 16.6 mph 98 % 0.0 in
00:31 7.9 °F 8.0 °F 1011.1 in SSW 10.5 mph 16.6 mph 98 % 0.0 in
00:36 7.9 °F 8.0 °F 1011.1 in SW 11.6 mph 16.6 mph 98 % 0.0 in
00:41 8.0 °F 8.0 °F 1011.1 in SW 7.9 mph 16.9 mph 98 % 0.0 in
00:46 7.9 °F 8.0 °F 1010.0 in SW 8.7 mph 16.9 mph 98 % 0.0 in
00:51 8.0 °F 8.0 °F 1010.0 in WSW 11.9 mph 16.6 mph 98 % 0.0 in
00:56 8.0 °F 8.0 °F 1010.0 in SSW 12.2 mph 16.6 mph 98 % 0.0 in
01:01 8.0 °F 8.0 °F 1011.1 in SSW 11.9 mph 15.4 mph 98 % 0.0 in
01:06 8.0 °F 8.0 °F 1011.1 in SW 9.7 mph 16.3 mph 98 % 0.0 in
01:11 8.0 °F 8.0 °F 1011.1 in SSW 10.1 mph 16.3 mph 98 % 0.0 in
01:16 8.0 °F 8.0 °F 1011.1 in SW 12.2 mph 16.3 mph 98 % 0.0 in
01:21 8.0 °F 8.0 °F 1011.1 in SSW 9.0 mph 16.3 mph 98 % 0.0 in
01:26 8.1 °F 8.0 °F 1011.1 in SW 14.0 mph 17.2 mph 98 % 0.0 in
01:31 8.1 °F 8.0 °F 1011.1 in SSW 10.5 mph 20.9 mph 98 % 0.0 in
01:36 8.1 °F 8.0 °F 1011.1 in SSW 12.2 mph 20.9 mph 98 % 0.0 in
01:41 8.1 °F 8.0 °F 1011.1 in WSW 14.0 mph 16.9 mph 98 % 0.0 in
01:46 8.1 °F 8.0 °F 1011.1 in SW 10.1 mph 16.3 mph 98 % 0.0 in
01:51 8.0 °F 8.0 °F 1011.1 in WSW 10.5 mph 16.3 mph 98 % 0.0 in
01:57 8.0 °F 8.0 °F 1011.1 in SSW 10.5 mph 13.0 mph 98 % 0.0 in
02:02 8.0 °F 8.0 °F 1011.1 in SSW 7.9 mph 13.0 mph 98 % 0.0 in
02:07 8.0 °F 8.0 °F 1011.1 in SW 10.1 mph 13.0 mph 98 % 0.0 in
02:12 8.1 °F 8.0 °F 1011.1 in SW 9.3 mph 12.6 mph 98 % 0.0 in
02:17 8.1 °F 8.0 °F 1011.1 in SW 9.3 mph 16.3 mph 98 % 0.0 in
02:22 8.2 °F 8.0 °F 1011.1 in SSW 13.7 mph 16.3 mph 98 % 0.0 in
02:27 8.2 °F 8.0 °F 1011.1 in SSW 11.6 mph 15.4 mph 98 % 0.0 in
02:32 8.2 °F 8.0 °F 1011.1 in SW 10.1 mph 15.4 mph 98 % 0.0 in
02:37 8.2 °F 8.0 °F 1011.1 in SW 9.7 mph 15.4 mph 98 % 0.0 in
02:42 8.1 °F 8.0 °F 1011.1 in SW 10.1 mph 16.3 mph 98 % 0.0 in
02:47 8.1 °F 8.0 °F 1011.1 in SSW 11.1 mph 16.3 mph 98 % 0.0 in
02:52 8.1 °F 8.0 °F 1011.1 in SW 13.0 mph 17.2 mph 98 % 0.0 in
02:57 8.1 °F 8.0 °F 1011.1 in SSW 12.2 mph 17.2 mph 98 % 0.0 in
03:02 8.0 °F 8.0 °F 1011.1 in WSW 13.0 mph 13.7 mph 98 % 0.0 in
03:07 8.0 °F 8.0 °F 1011.1 in WSW 9.0 mph 15.8 mph 98 % 0.0 in
03:12 7.9 °F 8.0 °F 1011.1 in SW 9.3 mph 15.8 mph 98 % 0.0 in
03:17 7.9 °F 8.0 °F 1011.1 in SW 7.9 mph 13.7 mph 98 % 0.0 in
03:22 7.9 °F 8.0 °F 1011.1 in SW 8.7 mph 14.0 mph 98 % 0.0 in
03:27 7.8 °F 8.0 °F 1011.1 in SW 9.0 mph 14.0 mph 98 % 0.0 in
03:32 7.8 °F 8.0 °F 1011.1 in SSW 10.1 mph 12.6 mph 98 % 0.0 in
03:37 7.8 °F 8.0 °F 1011.1 in SSW 9.0 mph 14.0 mph 98 % 0.0 in
03:42 7.8 °F 8.0 °F 1011.1 in SSW 9.7 mph 15.8 mph 98 % 0.0 in
03:47 7.8 °F 8.0 °F 1011.1 in SSW 14.0 mph 16.6 mph 98 % 0.0 in
03:52 7.8 °F 8.0 °F 1011.1 in SW 13.7 mph 16.6 mph 98 % 0.0 in
03:57 7.8 °F 8.0 °F 1011.1 in WSW 11.9 mph 17.2 mph 98 % 0.0 in
04:02 7.8 °F 8.0 °F 1011.1 in SSW 13.7 mph 17.2 mph 98 % 0.0 in
04:07 7.8 °F 8.0 °F 1011.1 in SSW 9.3 mph 16.3 mph 98 % 0.0 in
04:12 7.8 °F 8.0 °F 1011.1 in SSW 11.1 mph 13.7 mph 98 % 0.0 in
04:17 7.8 °F 8.0 °F 1011.1 in SSW 13.7 mph 13.7 mph 98 % 0.0 in
04:22 7.8 °F 8.0 °F 1011.1 in SSW 5.5 mph 13.7 mph 98 % 0.0 in
04:27 7.8 °F 8.0 °F 1011.1 in SSW 10.1 mph 15.8 mph 98 % 0.0 in
04:33 7.9 °F 8.0 °F 1011.1 in SSW 11.9 mph 15.8 mph 98 % 0.0 in
04:38 8.0 °F 8.0 °F 1011.1 in SSW 8.7 mph 14.0 mph 98 % 0.3 in
04:43 8.0 °F 8.0 °F 1011.1 in SW 6.1 mph 13.7 mph 98 % 0.3 in
04:48 7.9 °F 8.0 °F 1011.1 in SSW 9.3 mph 12.2 mph 98 % 0.3 in
04:53 7.9 °F 8.0 °F 1011.1 in SSW 7.9 mph 10.5 mph 98 % 0.3 in
04:58 7.9 °F 8.0 °F 1011.1 in SSW 12.2 mph 14.0 mph 98 % 0.3 in
05:03 7.9 °F 8.0 °F 1010.0 in SSW 7.9 mph 14.0 mph 98 % 0.3 in
05:08 7.9 °F 8.0 °F 1010.0 in SSW 8.7 mph 12.6 mph 98 % 0.3 in
05:13 8.0 °F 8.0 °F 1010.0 in SW 9.3 mph 11.9 mph 98 % 0.3 in
05:18 7.9 °F 8.0 °F 1011.1 in SSW 13.7 mph 13.7 mph 98 % 0.3 in
05:23 7.9 °F 8.0 °F 1011.1 in South 12.2 mph 15.8 mph 98 % 0.3 in
05:28 7.9 °F 8.0 °F 1011.1 in SSW 7.6 mph 15.8 mph 98 % 0.3 in
05:33 7.9 °F 8.0 °F 1011.1 in SW 6.4 mph 12.6 mph 98 % 0.3 in
05:38 7.9 °F 8.0 °F 1011.1 in SSW 8.7 mph 11.6 mph 98 % 0.0 in
05:43 8.0 °F 8.0 °F 1011.1 in SW 9.7 mph 11.6 mph 98 % 0.0 in
05:48 8.0 °F 8.0 °F 1011.1 in SSW 5.5 mph 10.5 mph 98 % 0.0 in
05:53 8.0 °F 8.0 °F 1011.1 in SSW 8.7 mph 10.5 mph 98 % 0.0 in
05:58 8.0 °F 8.0 °F 1011.1 in SW 10.1 mph 10.1 mph 98 % 0.0 in
06:03 8.0 °F 8.0 °F 1011.1 in SW 9.7 mph 11.9 mph 98 % 0.0 in
06:08 8.0 °F 8.0 °F 1011.1 in SSW 8.7 mph 12.2 mph 98 % 0.0 in
06:13 8.0 °F 8.0 °F 1011.1 in SSW 5.8 mph 12.2 mph 98 % 0.0 in
06:18 8.0 °F 8.0 °F 1011.1 in SSW 12.6 mph 13.0 mph 98 % 0.0 in
06:23 8.0 °F 8.0 °F 1011.1 in SW 8.7 mph 14.0 mph 98 % 0.0 in
06:28 8.0 °F 8.0 °F 1011.1 in SSW 10.5 mph 14.0 mph 98 % 0.0 in
06:33 8.0 °F 8.0 °F 1011.1 in SSW 9.7 mph 10.5 mph 98 % 0.0 in
06:38 7.9 °F 8.0 °F 1011.1 in SSW 11.9 mph 11.9 mph 98 % 0.0 in
06:43 7.9 °F 8.0 °F 1011.1 in SSW 6.9 mph 11.9 mph 98 % 0.0 in
06:48 7.8 °F 8.0 °F 1011.1 in SSW 5.5 mph 11.9 mph 98 % 0.0 in
06:53 7.8 °F 8.0 °F 1011.1 in SSW 4.3 mph 9.3 mph 98 % 0.0 in
06:58 7.8 °F 8.0 °F 1011.1 in SSW 6.9 mph 9.7 mph 98 % 0.0 in
07:04 7.9 °F 8.0 °F 1011.1 in SSW 6.4 mph 9.7 mph 98 % 0.0 in
07:09 7.9 °F 8.0 °F 1011.1 in SSW 5.0 mph 9.7 mph 98 % 0.0 in
07:14 7.9 °F 8.0 °F 1011.1 in SSW 10.1 mph 10.1 mph 98 % 0.0 in
07:19 8.0 °F 8.0 °F 1011.1 in South 3.5 mph 10.1 mph 98 % 0.0 in
07:24 8.0 °F 8.0 °F 1011.1 in Calm   10.1 mph 98 % 0.0 in
07:29 8.0 °F 8.0 °F 1011.1 in South 5.0 mph 7.9 mph 98 % 0.0 in
07:31 8.0 °F 8.0 °F 1011.1 in Calm   7.9 mph 98 % 0.0 in
07:36 7.9 °F 8.0 °F 1011.1 in South 4.0 mph 6.9 mph 98 % 0.0 in
07:41 7.9 °F 8.0 °F 1011.1 in Calm   7.6 mph 98 % 0.0 in
07:46 7.8 °F 8.0 °F 1011.1 in South 3.5 mph 8.7 mph 98 % 0.0 in
07:51 7.7 °F 8.0 °F 1011.1 in SSW 6.4 mph 8.7 mph 98 % 0.0 in
07:56 7.7 °F 8.0 °F 1011.1 in SSW 6.4 mph 7.9 mph 98 % 0.0 in
08:01 7.6 °F 8.0 °F 1011.1 in Calm   7.9 mph 98 % 0.0 in
08:06 7.6 °F 8.0 °F 1011.1 in SSW 5.0 mph 12.6 mph 98 % 0.0 in
08:11 7.5 °F 8.0 °F 1011.1 in South 9.3 mph 12.6 mph 98 % 0.0 in
08:17 7.5 °F 8.0 °F 1011.1 in SSW 5.0 mph 11.9 mph 98 % 0.0 in
08:22 7.5 °F 8.0 °F 1011.1 in South 6.9 mph 11.9 mph 98 % 0.0 in
08:27 7.4 °F 7.0 °F 1011.1 in SSW 8.7 mph 11.9 mph 98 % 0.0 in
08:32 7.4 °F 7.0 °F 1010.0 in South 6.1 mph 11.9 mph 98 % 0.0 in
08:37 7.4 °F 7.0 °F 1010.0 in Calm   8.7 mph 98 % 0.0 in
08:42 7.4 °F 7.0 °F 1010.0 in Calm   8.7 mph 98 % 0.0 in
08:47 7.4 °F 7.0 °F 1011.1 in South 4.3 mph 8.7 mph 98 % 0.0 in
08:52 7.4 °F 7.0 °F 1011.1 in Calm   7.9 mph 98 % 0.0 in
08:57 7.4 °F 7.0 °F 1011.1 in SSW 9.3 mph 11.9 mph 98 % 0.0 in
09:02 7.5 °F 8.0 °F 1011.1 in South 9.0 mph 11.9 mph 98 % 0.0 in
09:07 7.6 °F 8.0 °F 1011.1 in SSW 8.7 mph 13.0 mph 98 % 0.0 in
09:12 7.7 °F 8.0 °F 1011.1 in SSW 5.5 mph 13.0 mph 98 % 0.0 in
09:17 7.7 °F 8.0 °F 1011.1 in SW 5.5 mph 13.0 mph 98 % 0.0 in
09:22 7.8 °F 8.0 °F 1011.1 in SSW 7.9 mph 16.6 mph 98 % 0.0 in
09:27 7.9 °F 8.0 °F 1011.1 in SSW 9.7 mph 16.6 mph 98 % 0.0 in
09:32 7.9 °F 8.0 °F 1011.1 in SSW 9.0 mph 14.0 mph 98 % 0.0 in
09:37 7.9 °F 8.0 °F 1011.1 in SSW 6.4 mph 13.7 mph 98 % 0.0 in
09:42 7.9 °F 8.0 °F 1011.1 in SSW 9.0 mph 13.7 mph 98 % 0.0 in
09:47 8.0 °F 8.0 °F 1010.0 in SSW 10.5 mph 14.0 mph 98 % 0.0 in
09:52 8.0 °F 8.0 °F 1010.0 in South 6.9 mph 14.0 mph 98 % 0.0 in
09:57 8.1 °F 8.0 °F 1010.0 in SSW 8.7 mph 12.6 mph 98 % 0.0 in
10:02 8.2 °F 8.0 °F 1011.1 in SSW 9.0 mph 16.6 mph 98 % 0.0 in
10:07 8.2 °F 8.0 °F 1011.1 in SW 11.6 mph 16.6 mph 98 % 0.0 in
10:12 8.3 °F 9.0 °F 1011.1 in SW 10.5 mph 14.0 mph 98 % 0.0 in
10:17 8.4 °F 9.0 °F 1011.1 in SW 6.4 mph 14.0 mph 98 % 0.0 in
10:22 8.4 °F 9.0 °F 1011.1 in SSW 14.3 mph 14.3 mph 98 % 0.0 in
10:27 8.5 °F 9.0 °F 1011.1 in SSW 8.7 mph 14.3 mph 98 % 0.0 in
10:32 8.5 °F 9.0 °F 1010.0 in SW 10.1 mph 13.0 mph 98 % 0.0 in
10:37 8.5 °F 9.0 °F 1010.0 in SSW 9.3 mph 13.0 mph 98 % 0.0 in
10:42 8.6 °F 9.0 °F 1010.0 in SSW 8.7 mph 10.1 mph 98 % 0.0 in
10:47 8.6 °F 9.0 °F 1010.0 in South 6.1 mph 10.1 mph 98 % 0.0 in
10:53 8.7 °F 9.0 °F 1010.0 in SSW 9.0 mph 10.1 mph 98 % 0.0 in
10:58 8.7 °F 9.0 °F 1010.0 in SSW 6.9 mph 10.8 mph 98 % 0.0 in
11:03 8.8 °F 9.0 °F 1011.1 in SW 6.4 mph 10.8 mph 98 % 0.0 in
11:08 8.8 °F 9.0 °F 1011.1 in SSW 9.0 mph 11.9 mph 98 % 0.0 in
11:13 8.9 °F 9.0 °F 1011.1 in SSW 6.9 mph 13.0 mph 98 % 0.0 in
11:18 8.9 °F 9.0 °F 1010.0 in SW 9.0 mph 13.0 mph 98 % 0.0 in
11:23 9.0 °F 9.0 °F 1010.0 in SW 10.5 mph 13.7 mph 97 % 0.0 in
11:28 9.0 °F 9.0 °F 1010.0 in SSW 9.0 mph 13.7 mph 97 % 0.0 in
11:33 9.1 °F 9.0 °F 1011.1 in SSW 6.4 mph 13.0 mph 97 % 0.0 in
11:38 9.2 °F 9.0 °F 1011.1 in SSW 12.6 mph 13.0 mph 97 % 0.0 in
11:43 9.3 °F 9.0 °F 1010.0 in SSW 7.9 mph 13.7 mph 97 % 0.0 in
11:48 9.3 °F 9.0 °F 1010.0 in SSW 6.4 mph 13.7 mph 96 % 0.0 in
11:53 9.3 °F 9.0 °F 1010.0 in SW 13.7 mph 15.8 mph 96 % 0.0 in
11:58 9.4 °F 9.0 °F 1011.1 in WSW 8.7 mph 18.0 mph 96 % 0.0 in
12:03 9.5 °F 9.0 °F 1011.1 in SSW 9.7 mph 18.0 mph 95 % 0.0 in
12:08 9.6 °F 9.0 °F 1011.1 in SSW 10.5 mph 17.2 mph 95 % 0.0 in
12:13 9.8 °F 9.0 °F 1011.1 in SSW 8.7 mph 17.2 mph 95 % 0.0 in
12:18 9.8 °F 9.0 °F 1011.1 in SW 11.6 mph 14.0 mph 94 % 0.0 in
12:24 9.8 °F 9.0 °F 1011.1 in SW 12.2 mph 16.6 mph 94 % 0.0 in
12:29 9.9 °F 9.0 °F 1010.0 in SW 9.7 mph 16.6 mph 93 % 0.0 in
12:34 9.9 °F 9.0 °F 1010.0 in WSW 9.0 mph 15.8 mph 93 % 0.0 in
12:39 9.9 °F 9.0 °F 1010.0 in SSW 10.8 mph 18.3 mph 92 % 0.0 in
12:44 10.0 °F 9.0 °F 1011.1 in SSW 9.7 mph 18.3 mph 92 % 0.0 in
12:49 10.0 °F 9.0 °F 1011.1 in SSW 8.7 mph 16.3 mph 92 % 0.0 in
12:54 10.0 °F 9.0 °F 1011.1 in SSW 7.9 mph 16.3 mph 91 % 0.0 in
12:59 10.1 °F 9.0 °F 1010.0 in SW 8.7 mph 14.8 mph 91 % 0.0 in
13:04 10.1 °F 9.0 °F 1010.0 in SW 6.4 mph 14.0 mph 91 % 0.0 in
13:09 10.2 °F 9.0 °F 1010.0 in SW 12.2 mph 14.0 mph 90 % 0.0 in
13:14 10.2 °F 9.0 °F 1010.0 in SW 9.7 mph 16.6 mph 90 % 0.0 in
13:19 10.2 °F 9.0 °F 1010.0 in SW 10.5 mph 16.6 mph 90 % 0.0 in
13:24 10.3 °F 9.0 °F 1010.0 in SSW 12.6 mph 15.8 mph 89 % 0.0 in
13:29 10.3 °F 9.0 °F 1011.1 in SSW 11.1 mph 15.8 mph 89 % 0.0 in
13:34 10.3 °F 9.0 °F 1011.1 in WSW 10.5 mph 15.8 mph 88 % 0.0 in
13:39 10.3 °F 9.0 °F 1011.1 in SW 10.1 mph 16.3 mph 87 % 0.0 in
13:44 10.2 °F 9.0 °F 1010.0 in SW 15.4 mph 16.9 mph 87 % 0.0 in
13:49 10.2 °F 9.0 °F 1010.0 in SW 13.7 mph 16.9 mph 87 % 0.0 in
13:54 10.3 °F 9.0 °F 1010.0 in WSW 9.0 mph 17.2 mph 87 % 0.0 in
13:59 10.4 °F 9.0 °F 1010.0 in SSW 7.9 mph 17.2 mph 87 % 0.0 in
14:04 10.4 °F 8.0 °F 1010.0 in WSW 15.4 mph 17.2 mph 86 % 0.0 in
14:09 10.3 °F 8.0 °F 1010.0 in SW 10.1 mph 17.2 mph 86 % 0.0 in
14:14 10.4 °F 8.0 °F 1010.0 in WSW 9.3 mph 15.8 mph 86 % 0.0 in
14:19 10.4 °F 8.0 °F 1010.0 in WSW 11.1 mph 16.9 mph 85 % 0.0 in
14:24 10.4 °F 8.0 °F 1010.0 in WSW 15.4 mph 17.2 mph 85 % 0.0 in
14:29 10.4 °F 8.0 °F 1010.0 in WSW 11.6 mph 17.2 mph 85 % 0.0 in
14:34 10.3 °F 8.0 °F 1010.0 in WSW 11.9 mph 16.9 mph 85 % 0.0 in
14:39 10.2 °F 8.0 °F 1010.0 in WSW 9.7 mph 16.9 mph 85 % 0.0 in
14:44 10.1 °F 8.0 °F 1010.0 in SW 10.5 mph 14.3 mph 85 % 0.0 in
14:49 10.1 °F 8.0 °F 1010.0 in WSW 7.9 mph 14.0 mph 85 % 0.0 in
14:54 10.1 °F 8.0 °F 1010.0 in SW 8.7 mph 14.0 mph 85 % 0.0 in
14:59 10.0 °F 8.0 °F 1009.0 in SSW 6.1 mph 11.9 mph 85 % 0.0 in
15:05 9.9 °F 8.0 °F 1009.0 in SW 9.7 mph 15.4 mph 85 % 0.0 in
15:10 9.9 °F 8.0 °F 1009.0 in WSW 11.6 mph 15.4 mph 85 % 0.0 in
15:15 9.8 °F 8.0 °F 1010.0 in WSW 11.9 mph 15.8 mph 85 % 0.0 in
15:20 9.8 °F 8.0 °F 1010.0 in WSW 11.9 mph 17.7 mph 85 % 0.0 in
15:25 9.7 °F 8.0 °F 1010.0 in SSW 9.3 mph 17.7 mph 85 % 0.0 in
15:30 9.7 °F 8.0 °F 1010.0 in SW 10.5 mph 12.2 mph 85 % 0.0 in
15:35 9.6 °F 8.0 °F 1010.0 in SW 7.9 mph 13.0 mph 85 % 0.0 in
15:40 9.6 °F 8.0 °F 1010.0 in SW 7.9 mph 13.0 mph 85 % 0.0 in
15:45 9.6 °F 8.0 °F 1010.0 in South 8.7 mph 11.9 mph 85 % 0.0 in
15:51 9.5 °F 8.0 °F 1010.0 in SW 9.7 mph 11.6 mph 86 % 0.0 in
15:56 9.4 °F 7.0 °F 1010.0 in SSW 7.9 mph 11.6 mph 86 % 0.0 in
16:01 9.4 °F 7.0 °F 1010.0 in WSW 10.5 mph 12.2 mph 86 % 0.0 in
16:06 9.4 °F 7.0 °F 1010.0 in WSW 9.3 mph 12.6 mph 86 % 0.0 in
16:11 9.4 °F 7.0 °F 1010.0 in WSW 5.8 mph 12.6 mph 86 % 0.0 in
16:16 9.3 °F 7.0 °F 1010.0 in Calm   10.5 mph 86 % 0.0 in
16:21 9.3 °F 7.0 °F 1010.0 in SW 6.1 mph 10.5 mph 86 % 0.0 in
16:26 9.3 °F 7.0 °F 1010.0 in SW 2.1 mph 10.1 mph 86 % 0.0 in
16:31 9.3 °F 7.0 °F 1010.0 in Calm   10.1 mph 86 % 0.0 in
16:36 9.3 °F 7.0 °F 1010.0 in SSW 9.0 mph 12.6 mph 86 % 0.0 in
16:41 9.2 °F 7.0 °F 1010.0 in WSW 9.0 mph 12.6 mph 86 % 0.0 in
16:46 9.2 °F 7.0 °F 1010.0 in SW 9.0 mph 13.0 mph 86 % 0.0 in
16:51 9.1 °F 7.0 °F 1010.0 in SW 13.0 mph 13.0 mph 86 % 0.0 in
16:56 9.0 °F 7.0 °F 1010.0 in SW 9.3 mph 13.0 mph 86 % 0.0 in
17:01 9.0 °F 7.0 °F 1010.0 in SW 8.7 mph 13.0 mph 86 % 0.0 in
17:06 8.9 °F 7.0 °F 1010.0 in SW 4.7 mph 10.8 mph 87 % 0.0 in
17:11 8.8 °F 7.0 °F 1010.0 in SW 5.8 mph 10.1 mph 87 % 0.0 in
17:16 8.7 °F 7.0 °F 1010.0 in Calm   10.8 mph 87 % 0.0 in
17:21 8.7 °F 7.0 °F 1010.0 in WSW 7.9 mph 10.8 mph 88 % 0.0 in
17:26 8.6 °F 7.0 °F 1010.0 in Calm   9.7 mph 88 % 0.0 in
17:31 8.6 °F 7.0 °F 1010.0 in SSW 6.4 mph 9.7 mph 89 % 0.0 in
17:36 8.6 °F 7.0 °F 1010.0 in Calm   9.7 mph 89 % 0.0 in
17:41 8.6 °F 7.0 °F 1010.0 in Calm   9.7 mph 89 % 0.0 in
17:46 8.5 °F 7.0 °F 1010.0 in Calm   9.7 mph 90 % 0.0 in
17:51 8.5 °F 7.0 °F 1010.0 in Calm   6.9 mph 90 % 0.0 in
17:56 8.4 °F 7.0 °F 1010.0 in Calm     90 % 0.0 in
18:01 8.3 °F 7.0 °F 1010.0 in Calm   1.4 mph 90 % 0.0 in
18:06 8.2 °F 7.0 °F 1010.0 in Calm   2.6 mph 90 % 0.0 in
18:11 8.1 °F 7.0 °F 1010.0 in Calm   2.6 mph 90 % 0.0 in
18:16 7.9 °F 7.0 °F 1010.0 in Calm     91 % 0.0 in
18:21 7.8 °F 6.0 °F 1010.0 in Calm     91 % 0.0 in
18:26 7.7 °F 6.0 °F 1010.0 in Calm     91 % 0.0 in
18:31 7.6 °F 6.0 °F 1011.1 in Calm     91 % 0.0 in
18:37 7.5 °F 6.0 °F 1011.1 in Calm   3.5 mph 92 % 0.0 in
18:42 7.5 °F 6.0 °F 1011.1 in Calm   3.5 mph 92 % 0.0 in
18:47 7.5 °F 7.0 °F 1011.1 in Calm     93 % 0.0 in
18:52 7.5 °F 7.0 °F 1011.1 in Calm     93 % 0.0 in
18:57 7.4 °F 6.0 °F 1011.1 in Calm     93 % 0.0 in
19:02 7.4 °F 6.0 °F 1011.1 in Calm     94 % 0.0 in
19:07 7.4 °F 6.0 °F 1011.1 in Calm   5.5 mph 94 % 0.0 in
19:12 7.4 °F 6.0 °F 1011.1 in Calm   5.5 mph 94 % 0.0 in
19:17 7.4 °F 7.0 °F 1011.1 in Calm   1.8 mph 95 % 0.0 in
19:22 7.4 °F 7.0 °F 1011.1 in Calm     95 % 0.0 in
19:27 7.3 °F 7.0 °F 1011.1 in Calm     95 % 0.0 in
19:32 7.3 °F 7.0 °F 1011.1 in Calm     95 % 0.0 in
19:37 7.3 °F 7.0 °F 1011.1 in Calm   5.5 mph 95 % 0.0 in
19:42 7.3 °F 7.0 °F 1011.1 in Calm   5.5 mph 95 % 0.0 in
19:47 7.3 °F 7.0 °F 1011.1 in Calm     96 % 0.0 in
19:52 7.3 °F 7.0 °F 1011.1 in Calm     96 % 0.0 in
19:57 7.3 °F 7.0 °F 1011.1 in Calm   2.6 mph 96 % 0.0 in
20:02 7.2 °F 7.0 °F 1011.1 in Calm   7.6 mph 96 % 0.0 in
20:07 7.2 °F 7.0 °F 1011.1 in Calm   7.6 mph 96 % 0.0 in
20:12 7.2 °F 7.0 °F 1011.1 in SSW 4.3 mph 6.4 mph 96 % 0.0 in
20:17 7.2 °F 7.0 °F 1011.1 in SSW 4.7 mph 7.9 mph 96 % 0.0 in
20:22 7.2 °F 7.0 °F 1011.1 in SSW 2.1 mph 7.9 mph 96 % 0.0 in
20:27 7.3 °F 7.0 °F 1011.1 in SW 5.0 mph 7.9 mph 97 % 0.0 in
20:32 7.3 °F 7.0 °F 1011.1 in Calm   7.9 mph 97 % 0.0 in
20:37 7.3 °F 7.0 °F 1011.1 in Calm   7.9 mph 97 % 0.0 in
20:42 7.3 °F 7.0 °F 1011.1 in Calm   7.6 mph 96 % 0.0 in
20:47 7.2 °F 7.0 °F 1011.1 in Calm   7.6 mph 96 % 0.0 in
20:52 7.1 °F 7.0 °F 1011.1 in Calm   7.6 mph 96 % 0.0 in
20:57 7.1 °F 7.0 °F 1011.1 in South 7.9 mph 8.7 mph 96 % 0.0 in
21:02 7.0 °F 7.0 °F 1012.1 in Calm   8.7 mph 96 % 0.0 in
21:08 7.0 °F 7.0 °F 1012.1 in Calm   10.1 mph 96 % 0.0 in
21:13 6.9 °F 7.0 °F 1012.1 in South 5.8 mph 10.1 mph 97 % 0.0 in
21:18 6.8 °F 6.0 °F 1012.1 in South 1.8 mph 8.7 mph 97 % 0.0 in
21:23 6.7 °F 6.0 °F 1012.1 in Calm   5.8 mph 97 % 0.0 in
21:28 6.7 °F 6.0 °F 1012.1 in SSW 3.2 mph 7.6 mph 97 % 0.0 in
21:33 6.6 °F 6.0 °F 1011.1 in Calm   7.6 mph 97 % 0.0 in
21:37 6.5 °F 6.0 °F 1011.1 in Calm   6.1 mph 97 % 0.0 in
21:43 6.5 °F 6.0 °F 1011.1 in Calm   6.1 mph 97 % 0.0 in
21:48 6.5 °F 6.0 °F 1011.1 in SSW 6.4 mph 9.0 mph 97 % 0.0 in
21:53 6.5 °F 7.0 °F 1011.1 in SSW 6.4 mph 9.7 mph 98 % 0.0 in
21:58 6.6 °F 7.0 °F 1011.1 in SSW 6.1 mph 10.8 mph 98 % 0.0 in
22:03 6.5 °F 7.0 °F 1010.0 in SSW 6.4 mph 10.8 mph 98 % 0.0 in
22:08 6.6 °F 7.0 °F 1010.0 in SW 7.6 mph 9.7 mph 98 % 0.0 in
22:13 6.5 °F 7.0 °F 1010.0 in SW 7.9 mph 9.7 mph 98 % 0.0 in
22:18 6.5 °F 7.0 °F 1011.1 in SSW 5.8 mph 8.7 mph 98 % 0.0 in
22:23 6.5 °F 7.0 °F 1011.1 in Calm   7.9 mph 98 % 0.0 in
22:28 6.5 °F 7.0 °F 1011.1 in SW 5.8 mph 6.4 mph 98 % 0.0 in
22:33 6.5 °F 7.0 °F 1011.1 in Calm   6.4 mph 98 % 0.0 in
22:38 6.5 °F 7.0 °F 1011.1 in SSW 7.6 mph 7.6 mph 98 % 0.0 in
22:43 6.5 °F 7.0 °F 1011.1 in SSW 6.9 mph 10.1 mph 98 % 0.0 in
22:48 6.4 °F 6.0 °F 1011.1 in South 5.5 mph 10.1 mph 98 % 0.0 in
22:53 6.4 °F 6.0 °F 1011.1 in Calm   6.9 mph 98 % 0.0 in
22:58 6.3 °F 6.0 °F 1011.1 in Calm   6.4 mph 98 % 0.0 in
23:03 6.3 °F 6.0 °F 1011.1 in SSW 3.2 mph 4.3 mph 98 % 0.0 in
23:08 6.2 °F 6.0 °F 1011.1 in Calm   5.8 mph 98 % 0.0 in
23:13 6.1 °F 6.0 °F 1011.1 in Calm   5.8 mph 98 % 0.0 in
23:18 6.1 °F 6.0 °F 1011.1 in Calm   5.8 mph 98 % 0.0 in
23:23 6.1 °F 6.0 °F 1011.1 in SSW 2.6 mph 6.1 mph 98 % 0.0 in
23:28 6.1 °F 6.0 °F 1011.1 in Calm   6.1 mph 98 % 0.0 in
23:33 6.1 °F 6.0 °F 1011.1 in Calm   5.5 mph 98 % 0.0 in
23:38 6.0 °F 6.0 °F 1011.1 in SSW 3.5 mph 5.5 mph 98 % 0.0 in
23:43 6.0 °F 6.0 °F 1011.1 in Calm   6.4 mph 98 % 0.0 in
23:48 5.9 °F 6.0 °F 1011.1 in Calm   6.4 mph 98 % 0.0 in
23:53 5.9 °F 6.0 °F 1011.1 in SSW 3.5 mph 6.4 mph 98 % 0.0 in
23:59 5.8 °F 6.0 °F 1011.1 in SW 6.1 mph 9.3 mph 98 % 0.0 in
Le Gheer Warneton
Courtoisie de Weather Underground - 2.25 mb

Mise a jour : 25/02/2018 14:56:11
Généré par Cumulus 1.9.4 (1099)